Location: Moscow
(38.8570°N, 84.2291°W)
Time: 19:35:37
(UTC+00:00)

O/OREOS (USA 219) - Pass Details

Date: 15 March 2026
Orbit: 577 x 597 km, 72.0° (Epoch: 21 April)

Event Time Altitude Azimuth Distance (km) Brightness Sun altitude
Rises 01:06:59 0° 330° (NNW) 2,841 ? -17.1°
Reaches altitude 10° 01:09:20 10° 322° (NW) 1,932 ? -17.5°
Maximum altitude 01:13:18 37° 255° (WSW) 930 ? -18.3°
Drops below altitude 10° 01:17:14 10° 188° (S) 1,907 ? -19.0°
Sets 01:19:33 0° 180° (S) 2,799 ? -19.5°
